Location: Normandy Village
(37.8755°N, 122.2655°W)
Time: 12:38:09
(UTC+00:00)

PSLV R/B - Pass Details

Date: 22 September 2019
Orbit: 594 x 629 km, 97.9° (Epoch: 16 October)

Event Time Altitude Azimuth Distance (km) Brightness Sun altitude
Rises 12:34:15 0° 1° (N) 2,918 7.2 -16.9°
Reaches altitude 10° 12:36:37 10° 352° (N) 2,003 6.2 -16.5°
Maximum altitude 12:40:29 32° 289° (WNW) 1,070 4.3 -15.7°
Enters shadow 12:41:42 27° 258° (WSW) 1,190 4.4 -15.5°
